STARLINK-35484, 65923

Orbit data source: Space-Track

STARLINK-35484, 65923 is a payload satellite owned by SpaceX/Seattle (US) in LEO that was launched on Wed, 08 Oct 2025 UTC via an FALCON 9 launch vehicle from the Air Force Western Test Range (AFWTR). Payload-class satellites include a variety of spacecraft equipped with specific instruments for various scientific and technological missions. These include communications satellites like Starlink; space stations such as the ISS; scientific satellites like the Hubble; Earth observation satellites from companies like Planet Labs, Umbra, and HawkEye 360; GPS; miniature CubeSats for education and research; and military/defense satellites.

Loading next visibility...
Identifier
65923, 2025-225P
Orbit
LEO
Country
Flag of USUS
Related business
Manufacturer
SpaceX/Seattle
Mission
Operational Commercial Communications
Bus & Motor
STARLINK V2MO, Unknown motor
Mass
575 kg wet, ~530 kg dry
Launch date (UTC)
2025-10-08 (8 months ago)
Launch vehicle
FALCON 9
Launch site
Air Force Western Test Range (AFWTR)
Object type
Payload
Rocket body
Debris
Shape & HBR
Box + 2 Pan, 17.7 m
Radar Cross Section
36.964 m², Large (>1 m²)

Expand to show TLE details & history
Last TLE update: 11 hours ago

TLE from 11 hours ago
0 STARLINK-35484
1 65923U 25225P   26151.26621487  .00026596  00000-0  90682-3 0  9998
2 65923  53.1565 141.9240 0001103  94.2830 265.8297 15.30202572 37055
Epoch: 2026-05-31T06:23Z
TLE epoch observation values (Epoch: 2026-05-31T06:23:20.964Z)
Latitude
-0.00002°
Longitude
157.31628°
Altitude
476.162 km
Speed
7.629 km/s
True Right ascension
09h 27m 41s
True Declination
0° 00' 00"
Sunlit
Object was in daylight at epoch
Visualization orbit readout
Latitude
Unknown
Longitude
Unknown
Altitude
Unknown
Speed
Unknown
Apparent Right ascension
Unknown
Apparent Declination
Unknown
Sunlit
N/A
Visualization observer readout
Local Sidereal Time
03:17:38
Azimuth
Unknown
Elevation
Unknown
Doppler factor
Unknown
Orbital elements
Apogee altitude
476.22 km
Perigee altitude
474.708 km
Semi-major axis
6,853.601 km
Eccentricity
0.00011
Inclination
53.1565°
RAAN
141.924°
Arg. of periapsis
94.283°
True anomaly
265.81709°
Mean anomaly
265.8297°
Eccentric anomaly
265.8234°
Mean motion
3.82529 °/min
Orbital period
94.11 mins
BSTAR
0.00090682
Loading maneuver chart data...
Computing Atmospheric mass density...
Loading historical data...
Loading historical data...
Loading historical data...
Loading historical data...
Loading historical data...
Loading historical data...
Loading historical data...

Documentation

Showing up to 5 results
|